Location: Unspecified
(0.0000°N, 0.0000°E)
Time: 07:01:21
(UTC+02:00)

ADEOS II - Visible Passes

Search period start: 04 July 2015 00:00
Search period end: 14 July 2015 00:00
Orbit: 801 x 802 km, 98.3° (Epoch: 03 July)

Date Brightness Start Highest point End Pass type
(mag) Time Alt. Az. Time Alt. Az. Time Alt. Az.
04 Jul 3.6 06:24:53 10° NE 06:29:34 35° ESE 06:34:21 10° SSE visible
05 Jul 4.6 06:00:10 10° ENE 06:03:21 17° E 06:06:48 10° SE visible
06 Jul 2.1 07:11:37 10° N 07:16:48 62° WNW 07:22:00 10° SSW visible
07 Jul 2.5 06:45:27 10° NNE 06:50:38 64° ESE 06:55:51 10° S visible
08 Jul 3.8 06:19:56 10° NE 06:24:27 31° E 06:29:05 10° SSE visible
09 Jul 4.7 05:55:29 10° ENE 05:58:12 15° E 06:01:15 10° SE visible
09 Jul 2.8 07:33:08 10° NNW 07:37:52 34° W 07:42:32 10° SW visible
10 Jul 2.0 07:06:27 10° N 07:11:40 71° WNW 07:16:55 10° SSW visible
11 Jul 2.7 06:40:23 10° NNE 06:45:30 56° ESE 06:50:40 10° S visible
12 Jul 4.0 06:15:00 10° NE 06:19:18 27° E 06:23:45 10° SSE visible
13 Jul 4.8 05:50:55 10° ENE 05:53:03 13° E 05:55:35 10° SE visible
13 Jul 2.6 07:27:51 10° N 07:32:44 38° WNW 07:37:33 10° SW visible
